Location: Newark
(34.3481°N, 134.0494°E)
Time: 15:12:21
(UTC+00:00)

Vanguard 3 - Pass Details

Date: 29 January 2020
Orbit: 508 x 3263 km, 33.3° (Epoch: 25 February)

Event Time Altitude Azimuth Distance (km) Brightness Sun altitude
Rises 09:09:46 0° 262° (W) 6,885 14.1 -8.7°
Reaches altitude 10° 09:14:06 10° 263° (W) 6,037 13.2 -9.5°
Maximum altitude 09:34:21 87° 177° (S) 3,129 10.0 -13.6°
Enters shadow 09:48:12 19° 91° (E) 4,521 10.3 -16.4°
Drops below altitude 10° 09:50:38 10° 91° (E) 5,016 - -16.9°
Sets 09:53:51 0° 91° (E) 5,727 - -17.5°
